Duluth, MN

6:13 PM CST on November 22, 2017 (GMT -0600)
Duluth International

Weather History for KDLH - October, 2012

Change the Weather History Date:

Thursday, October 11, 2012

  Actual Average Record
Temperature  
Mean Temperature 36 °F 45 °F  
Max Temperature 42 °F 54 °F 84 °F (2015)
Min Temperature 30 °F 36 °F 21 °F (1936)
Degree Days  
Heating Degree Days 29 20  
Month to date heating degree days 240 197  
Since 1 July heating degree days 568 644  
Cooling Degree Days 0 0  
Month to date cooling degree days 0 0  
Year to date cooling degree days 409 204  
Moisture  
Dew Point 29 °F    
Average Humidity 73    
Maximum Humidity 96    
Minimum Humidity 50    
Precipitation  
Precipitation 0.09 in 0.09 in 1.30 in (1881)
Month to date precipitation 0.41 1.17  
Year to date precipitation 29.50 25.98  
Snow  
Snow 0.10 in 0.00 in 1.00 in (1917)
Month to date snowfall 0.9 0.3  
Since 1 July snowfall 1.0 0.4  
Since 1 September snowfall 1.0 0.4  
Snow Depth 0.00 in    
Sea Level Pressure  
Sea Level Pressure 30.06 in    
Wind  
Wind Speed 10 mph (NW)    
Max Wind Speed 20 mph    
Max Gust Speed 26 mph    
Visibility 8 miles    
Events Rain , Snow    
T = Trace of Precipitation, MM = Missing Value Source: NWS Daily Summary

Daily Weather History Graph

Daily Weather History Graph

Search for Another Location

Airport or City:

Trip Planner

Search our weather history database for the weather conditions in past years. The results will help you decide how hot, cold, wet, or windy it might be!

Date:

Astronomy

Oct. 11, 2012 Rise Set
Actual Time 7:21 AM CDT 6:28 PM CDT
Civil Twilight 6:51 AM CDT 6:58 PM CDT
Nautical Twilight 6:16 AM CDT 7:33 PM CDT
Astronomical Twilight 5:40 AM CDT 8:08 PM CDT
Moon 2:46 AM CDT (10/11) 4:17 PM CDT (10/11)
Length of Visible Light 12h 07m
Length of Day
11h 06m
Waning Crescent, 18% of the Moon is Illuminated
Oct 11
Waning Crescent
Oct 15
New
Oct 21
First Quarter
Oct 29
Full
Nov 6
Last Quarter

Hourly Weather History & Observations

Time (CDT) Temp. Windchill Dew Point Humidity Pressure Visibility Wind Dir Wind Speed Gust Speed Precip Events Conditions
12:01 AM 33.8 °F - 32.0 °F 93% 29.92 in 1.0 mi Calm Calm - 0.00 in Snow Light Snow
12:16 AM 33.8 °F - 32.0 °F 93% 29.91 in 0.8 mi Calm Calm - 0.03 in Snow Light Snow
12:41 AM 33.8 °F - 32.0 °F 93% 29.90 in 1.2 mi Calm Calm - 0.08 in Snow Light Snow
12:55 AM 34.0 °F - 32.0 °F 92% 29.94 in 1.5 mi Calm Calm - 0.10 in Rain , Snow Light Snow
1:02 AM 33.8 °F - 32.0 °F 93% 29.89 in 3.0 mi Calm Calm - 0.01 in Rain , Snow Light Snow
1:55 AM 34.0 °F 29.8 °F 32.0 °F 92% 29.91 in 7.0 mi North 4.6 mph - 0.05 in Rain Light Rain
2:21 AM 33.8 °F - 32.0 °F 93% 29.87 in 7.0 mi Calm Calm - 0.01 in Rain Light Rain
2:55 AM 34.0 °F - 32.0 °F 92% 29.91 in 7.0 mi Calm Calm - 0.02 in Rain Light Rain
3:08 AM 33.8 °F - 32.0 °F 93% 29.87 in 2.5 mi Calm Calm - 0.00 in Rain , Snow Light Snow
3:53 AM 33.8 °F 29.6 °F 32.0 °F 93% 29.88 in 3.0 mi NNW 4.6 mph - 0.02 in Snow Light Snow
3:55 AM 34.0 °F 29.8 °F 32.0 °F 92% 29.93 in 3.0 mi NNW 4.6 mph - 0.02 in Snow Light Snow
4:05 AM 33.8 °F 28.6 °F 32.0 °F 93% 29.88 in 8.0 mi NNW 5.8 mph - 0.00 in Snow Light Snow
4:37 AM 33.8 °F 28.6 °F 32.0 °F 93% 29.89 in 9.0 mi NW 5.8 mph - 0.00 in Snow Light Snow
4:55 AM 34.0 °F 28.8 °F 32.0 °F 92% 29.94 in 10.0 mi NNW 5.8 mph - 0.00 in   Overcast
5:42 AM 33.8 °F 28.6 °F 30.2 °F 87% 29.92 in 10.0 mi NW 5.8 mph - N/A   Mostly Cloudy
5:55 AM 34.0 °F 28.8 °F 30.9 °F 89% 29.97 in 10.0 mi NW 5.8 mph - N/A   Mostly Cloudy
6:17 AM 33.8 °F 27.0 °F 30.2 °F 87% 29.92 in 10.0 mi NW 8.1 mph - N/A   Mostly Cloudy
6:55 AM 34.0 °F 25.5 °F 30.9 °F 89% 29.99 in 10.0 mi NW 11.5 mph - N/A   Overcast
7:55 AM 34.0 °F 26.6 °F 30.9 °F 89% 30.01 in 10.0 mi NW 9.2 mph - N/A   Mostly Cloudy
8:02 AM 33.8 °F 25.8 °F 30.2 °F 87% 29.97 in 10.0 mi NW 10.4 mph - N/A   Mostly Cloudy
8:09 AM 33.8 °F 25.8 °F 30.2 °F 87% 29.97 in 10.0 mi NW 10.4 mph - N/A   Scattered Clouds
8:19 AM 33.8 °F 25.3 °F 30.2 °F 87% 29.98 in 10.0 mi NW 11.5 mph - N/A   Mostly Cloudy
8:39 AM 33.8 °F 25.8 °F 30.2 °F 87% 29.99 in 10.0 mi WNW 10.4 mph - N/A   Scattered Clouds
8:55 AM 34.0 °F 25.5 °F 30.0 °F 85% 30.05 in 10.0 mi WNW 11.5 mph - N/A   Scattered Clouds
9:38 AM 33.8 °F 24.8 °F 30.2 °F 87% 30.02 in 10.0 mi NW 12.7 mph 21.9 mph N/A   Mostly Cloudy
9:50 AM 33.8 °F 24.8 °F 28.4 °F 81% 30.03 in 10.0 mi NW 12.7 mph 25.3 mph N/A   Mostly Cloudy
9:55 AM 34.0 °F 24.2 °F 28.9 °F 82% 30.09 in 10.0 mi NW 15.0 mph 25.3 mph N/A   Mostly Cloudy
10:55 AM 34.0 °F 23.8 °F 28.0 °F 79% 30.13 in 10.0 mi NW 16.1 mph 21.9 mph N/A   Overcast
11:55 AM 35.1 °F 24.8 °F 28.9 °F 78% 30.15 in 10.0 mi NW 17.3 mph - N/A   Mostly Cloudy
12:14 PM 35.6 °F 26.2 °F 28.4 °F 75% 30.10 in 10.0 mi NW 15.0 mph 23.0 mph N/A   Scattered Clouds
12:25 PM 37.4 °F 28.9 °F 28.4 °F 70% 30.11 in 10.0 mi WNW 13.8 mph 20.7 mph N/A   Mostly Cloudy
12:55 PM 37.9 °F 30.0 °F 28.9 °F 70% 30.17 in 10.0 mi WNW 12.7 mph 21.9 mph N/A   Mostly Cloudy
1:55 PM 41.0 °F 33.5 °F 28.9 °F 62% 30.17 in 10.0 mi NW 13.8 mph 21.9 mph N/A   Mostly Cloudy
2:02 PM 39.2 °F 30.2 °F 28.4 °F 65% 30.13 in 10.0 mi NW 17.3 mph 24.2 mph N/A   Mostly Cloudy
2:55 PM 39.9 °F 32.1 °F 26.1 °F 58% 30.20 in 10.0 mi NW 13.8 mph 23.0 mph N/A   Mostly Cloudy
3:55 PM 41.0 °F 34.3 °F 26.1 °F 55% 30.21 in 10.0 mi NW 11.5 mph 19.6 mph N/A   Mostly Cloudy
4:55 PM 39.2 °F 31.2 °F 24.8 °F 56% 30.18 in 10.0 mi NW 13.8 mph 19.6 mph N/A   Mostly Cloudy
5:55 PM 39.0 °F 32.3 °F 23.0 °F 53% 30.26 in 10.0 mi NW 10.4 mph - N/A   Mostly Cloudy
6:55 PM 37.0 °F 29.8 °F 21.9 °F 54% 30.28 in 10.0 mi NW 10.4 mph - N/A   Partly Cloudy
7:55 PM 33.8 °F 27.0 °F 21.2 °F 60% 30.25 in 10.0 mi NW 8.1 mph - N/A   Partly Cloudy
8:55 PM 33.1 °F 27.7 °F 21.9 °F 64% 30.33 in 10.0 mi NW 5.8 mph - N/A   Clear
9:55 PM 30.9 °F 24.3 °F 21.9 °F 69% 30.35 in 10.0 mi WNW 6.9 mph - N/A   Clear
10:55 PM 30.9 °F 24.3 °F 21.9 °F 69% 30.37 in 10.0 mi WNW 6.9 mph - N/A   Clear
11:55 PM 30.9 °F 22.8 °F 21.0 °F 67% 30.38 in 10.0 mi NW 9.2 mph - N/A   Clear